Find Astra 2E

NORAD ID: 39285 Int'l Des: 2013-056 Owner: SESSA Country: L operational
HEOCIRCULARGSOGEO

实时位置

正在加载3D地球...

关于 Astra 2E

正在加载描述...

即将过境

Passes for default location (London). Set your location on the main map for personalized predictions.

高度历史

Loading altitude history...

两行轨道根数

1 39285U 13056A 26120.13602042 .00000151 00000-0 00000+0 0 9997
2 39285 0.0706 320.7296 0002149 93.2067 241.6336 1.00271353 45932
Epoch: Apr 30, 2026 • Age: 9 hours

当前状态

高度 35777.4 km
速度 3.08 km/s
星下点 0.06°N, 28.52°E
发射日期 Sep 29, 2013
运行时间 12.5 years
类型 other

技术详情

分类 Payload
质量 6052.00 kg
干质量 3000.00 kg
总质量 6052.00 kg
长度 6.80 m
直径 2.80 m
跨度 39.80 m
形状 Box + 2 panels
制造商 EADSB
平台类型 Eurostar 3000
阶段状态 In Orbit
所有者/国家 SESSA/L

Most Searched